Current weather by "City, St" or "zip code"  
 

Current Conditions: Pittsfield Municipal Airport, MA

Overcast


62.0 F

Last Updated on Oct 23 2020, 10:54 pm EDT
Humidity: 84%
Wind Speed: S 9.2 mph
Barometer 30.03 in
Dewpoint: 57.0 F
Visibility: 10.00 mi
Precip: --
Heat Index: NA
Wind Chill: 61 F
Current conditions at:

Pittsfield Municipal Airport, MA (KPSF)

Lat: 42.42691 Lon: 73.28897

Local Radar Image active severe weather and emergency alerts image image weather storm and storm spotter reports image weather observation monitoring service image
Local
Radar
Active
Alerts
Storm Reports Obs
Monitoring

Sign-up For Email & Text Message Weather Alert Notification Services



Advertise Here

Observation History for Pittsfield Municipal Airport, MA


Time Wind
(mph)
Vis
(mi)
Weather Precip (in) Temperature (F) Relative
Humidity
Wind
Chill
(F)
Heat
Index
(F)
Pressure
Air Dwpt altimeter
(in)
sea level
(mb)
Rmks
10:54 pm EDT S 9.2 10.00 Overcast -- 62.0 57.0 84% 61 NA 30.03 1014.8
9:54 pm EDT S 10.4 10.00 Overcast -- 62.0 57.0 84% 61 NA 30.04 1015.1
8:54 pm EDT S 8.1 10.00 Partly Cloudy -- 62.0 55.9 80% 61 NA 30.05 1015.5
7:54 pm EDT S 11.5 G 18.4 10.00 Fair -- 62.0 55.9 80% 61 NA 30.05 1015.9
6:54 pm EDT SE 11.5 10.00 Partly Cloudy -- 63.0 55.9 78% 62 NA 30.07 1016.3
5:54 pm EDT S 9.2 10.00 A Few Clouds -- 65.0 57.0 76% NA NA 30.07 1016.2
4:54 pm EDT S 11.5 G 19.6 10.00 Fair -- 68.0 57.0 68% NA NA 30.08 1016.4
3:54 pm EDT S 12.7 G 19.6 10.00 A Few Clouds -- 70.0 57.0 64% NA NA 30.09 1016.7
2:54 pm EDT S 9.2 G 21.9 10.00 Fair -- 71.0 57.9 63% NA NA 30.10 1017.2
4:54 am EDT SE 5.8 9.00 Overcast -- 62.0 59.0 90% 62 NA 30.19 1020.0
3:54 am EDT 3.5 8.00 Overcast -- 63.0 59.0 87% NA NA 30.19 1019.8
2:54 am EDT S 4.6 6.00 Fog/Mist -- 62.0 60.1 93% 62 NA 30.20 1020.2
1:54 am EDT S 3.5 8.00 Overcast -- 62.0 60.1 93% NA NA 30.20 1020.5
12:54 am EDT N 0.0 10.00 Overcast -- 62.0 59.0 90% NA NA 30.21 1020.9
11:54 pm EDT N 0.0 10.00 Mostly Cloudy -- 59.0 55.0 87% NA NA 30.22 1021.3

Regional Weather Observation


Albany International Airport, NY (KALB)

A Few Clouds
60.0 F

Bennington Morse State Airport, VT (KDDH)

Partly Cloudy
56.0 F

Pittsfield Municipal Airport, MA (KPSF)

Overcast
62.0 F

Schenectady Airport, NY (KSCH)

Fair
64.0 F

Westfield, Barnes Municipal Airport, MA (KBAF)

Overcast
61.0 F

Glens Falls, Floyd Bennett Memorial Airport, NY (KGFL)

Fair
62.0 F